Location: �perlecques
(50.8057°N, 2.1521°E)
Time: 20:10:41
(UTC+00:00)

Tiros 1 - Pass Details

Date: 07 August 2021
Orbit: 630 x 663 km, 48.4° (Epoch: 28 September)

Event Time Altitude Azimuth Distance (km) Brightness Sun altitude
Rises 20:37:25 0° 280° (W) 2,983 11.7 -10.1°
Reaches altitude 10° 20:39:57 10° 271° (W) 2,064 10.5 -10.4°
Maximum altitude 20:44:11 33° 208° (SSW) 1,100 8.2 -10.9°
Enters shadow 20:47:30 15° 151° (SSE) 1,750 8.8 -11.2°
Drops below altitude 10° 20:48:22 10° 145° (SE) 2,037 - -11.3°
Sets 20:50:51 0° 136° (SE) 2,938 - -11.6°
